sat.trackr.live / text

‹ back to catalog

FLOCK 4G-8

NORAD 62613 · 2025-009E

PAYLOAD ACTIVE UNKNOWN

§ Identity

Operator
Country
US
Launch date
2025-01-14
Launch site
AFWTR
Launch vehicle
Mass (kg)
RCS (m²)

Purposes: earth_obs

External: N2YO · Heavens-Above · Gunter

§ Orbital elements

Epoch: 2026-09-18T23:12:31.203648Z

Period
94.03 min
Inclination
97.3945°
Eccentricity
0.0003428
Mean motion
15.31421275 rev/d
Perigee alt
469.2 km
Apogee alt
473.9 km
Semi-major
6,849.7 km
B*
2.6240e-4
RAAN
343.6558°
Arg perigee
3.4475°
Mean anomaly
356.6789°
Rev number
9,326

§ Raw data

FLOCK 4G-81 62613U 25009E   26261.96702782  .00007887  00000+0  26240-3 0  99982 62613  97.3945 343.6558 0003428   3.4475 356.6789 15.31421275 93266

JSON: /api/v1/satellites/62613 · /tle

For live sub-satellite position, see the globe view (requires WebGL).

§ Visibility from observer

Set your observer location to see the next 7 days of passes ≥ 10°. The values pass through the URL so the page stays shareable.

No JS? Fill the form by hand. The geolocation button needs JavaScript.